Location: Archemont
(49.1579°N, 1.7598°E)
Time: 15:18:27
(UTC+00:00)

deb Explorer IX - All Passes

Search period start: 13 April 2024 00:00
Search period end: 23 April 2024 00:00
Orbit: 513 x 905 km, 38.7° (Epoch: 12 April)

Date Brightness Start Highest point End Pass type
(mag) Time Alt. Az. Time Alt. Az. Time Alt. Az.
13 Apr - 13:48:29 10° SSW 13:52:51 20° SSE 13:57:05 10° ESE daylight
13 Apr - 15:31:24 10° SW 15:36:33 29° S 15:41:22 10° ESE daylight
13 Apr - 17:15:37 10° WSW 17:20:15 24° SSW 17:24:31 10° SE daylight
13 Apr - 19:02:03 10° SW 19:03:29 11° SSW 19:04:54 10° SSW daylight
14 Apr - 12:51:15 10° S 12:54:55 16° SSE 12:58:32 10° ESE daylight
14 Apr - 14:33:23 10° SW 14:38:31 28° S 14:43:24 10° ESE daylight
14 Apr - 16:17:15 10° WSW 16:22:17 28° S 16:26:58 10° SE daylight
14 Apr - 18:02:22 10° WSW 18:05:44 16° SSW 18:08:55 10° S daylight
15 Apr - 11:54:43 10° S 11:57:01 12° SSE 11:59:18 10° SE daylight
15 Apr - 13:35:30 10° SW 13:40:27 25° SSE 13:45:16 10° ESE daylight
15 Apr - 15:18:57 10° WSW 15:24:13 30° S 15:29:12 10° ESE daylight
15 Apr - 17:03:32 10° WSW 17:07:51 21° SSW 17:11:54 10° SSE daylight
16 Apr - 12:37:51 10° SSW 12:42:23 21° SSE 12:46:53 10° ESE daylight
16 Apr - 14:20:46 10° SW 14:26:06 30° S 14:31:14 10° ESE daylight
16 Apr - 16:04:57 10° WSW 16:09:50 25° SSW 16:14:28 10° SE daylight
16 Apr - 17:51:07 10° SW 17:53:09 12° SSW 17:55:07 10° SSW daylight
17 Apr - 11:40:32 10° SSW 11:44:21 17° SSE 11:48:11 10° ESE daylight
17 Apr - 13:22:42 10° SW 13:27:56 29° S 13:33:05 10° ESE daylight
17 Apr - 15:06:31 10° WSW 15:11:45 29° S 15:16:44 10° SE daylight
17 Apr - 16:51:34 10° WSW 16:55:15 17° SSW 16:58:46 10° S daylight
18 Apr - 10:43:54 10° S 10:46:21 13° SSE 10:48:51 10° SE daylight
18 Apr - 12:24:47 10° SW 12:29:46 26° SSE 12:34:46 10° ESE daylight
18 Apr - 14:08:11 10° WSW 14:13:33 31° S 14:18:47 10° ESE daylight
18 Apr - 15:52:42 10° WSW 15:57:14 22° SSW 16:01:34 10° SSE daylight
19 Apr - 11:27:05 10° SSW 11:31:36 22° SSE 11:36:13 10° ESE daylight
19 Apr - 13:09:57 10° WSW 13:15:19 31° S 13:20:38 10° ESE daylight
19 Apr - 14:54:04 10° WSW 14:59:06 26° SSW 15:03:57 10° SE daylight
19 Apr - 16:40:06 10° SW 16:42:26 12° SSW 16:44:45 10° S daylight
20 Apr - 10:29:44 10° SSW 10:33:30 17° SSE 10:37:21 10° ESE daylight
20 Apr - 12:11:52 10° SW 12:17:03 29° S 12:22:19 10° ESE daylight
20 Apr - 13:55:36 10° WSW 14:00:52 29° S 14:06:02 10° SE daylight
20 Apr - 15:40:35 10° WSW 15:44:25 17° SSW 15:48:09 10° SSE daylight
21 Apr - 09:33:05 10° S 09:35:26 12° SSE 09:37:50 10° SE daylight
21 Apr - 11:13:55 10° SW 11:18:47 26° SSE 11:23:49 10° ESE daylight
21 Apr - 12:57:15 10° WSW 13:02:34 31° S 13:07:54 10° ESE daylight
21 Apr - 14:41:40 10° WSW 14:46:16 22° SSW 14:50:46 10° SSE daylight
22 Apr - 10:16:12 10° SSW 10:20:34 22° SSE 10:25:06 10° ESE daylight
22 Apr - 11:59:00 10° WSW 12:04:14 31° S 12:09:36 10° ESE daylight
22 Apr - 13:43:01 10° WSW 13:48:00 26° SSW 13:52:59 10° SE daylight
22 Apr - 15:28:57 10° SW 15:31:24 12° SSW 15:33:49 10° S daylight
